Regional Weather Roundup
Issued by NWS Jackson, KY

Home | Current Version | Previous Version | Text Only | Print | Product List | Glossary On
Versions: 1 2 3 4 5 6 7 8 9 10 11 12 13 14 15 16 17 18 19 20 21 22 23 24 25 26 27 28 29 30 31 32 33 34 35 36 37 38 39 40 41 42 43 44 45 46 47 48 49 50
000
ASUS43 KJKL 270110
RWRJKL

EAST KENTUCKY HOURLY WEATHER ROUNDUP
NATIONAL WEATHER SERVICE JACKSON KY
900 PM EDT FRI AUG 26 2016

NOTE: "FAIR" INDICATES FEW OR NO CLOUDS BELOW 12,000 FEET WITH
NO SIGNIFICANT WEATHER AND/OR OBSTRUCTIONS TO VISIBILITY.

* THESE REPORTS ARE NOT UNDER NWS QUALITY CONTROL AND MAY NOT
  REPORT WEATHER SUCH AS PRECIPITATION AND FOG.

KYZ079-080-083-085-087-088-110-112-115-119-120-270200
...EASTERN KENTUCKY...

CITY           SKY/WX    TMP DP  RH WIND       PRES   REMARKS
JACKSON        CLEAR     80  68  66 CALM      30.15R
LONDON         CLEAR     80  69  69 N3        30.13R
SOMERSET*      CLEAR     79  68  69 CALM      30.12R
MONTICELLO*    CLEAR    N/A N/A N/A VRB6      30.13R
WILLIAMSBURG*  CLEAR     79  73  83 NE5       30.12R
MIDDLESBORO*   CLEAR     79  74  86 W3        30.13R
HARLAN APT*    CLEAR     77  70  78 CALM      30.15R
PIKE CO APT*     N/A     82  72  71 N3        30.15R
BIG SANDY APT* CLEAR     80  73  78 CALM      30.14R
MOREHEAD APT*  CLEAR     82  72  69 CALM      30.14R
ASHLAND*       CLEAR     81  75  83 CALM      30.09R
$$

KYZ035-036-041-042-044-050-067-078-099-270200
...CENTRAL KENTUCKY...

CITY           SKY/WX    TMP DP  RH WIND       PRES   REMARKS
MT STERLING*   CLEAR     77  73  88 CALM      30.14R
FLEMING/MASON* CLEAR     83  71  66 S3        30.13R
DANVILLE*      CLEAR     79  70  73 CALM      30.12R
LEXINGTON      CLEAR     84  69  60 CALM      30.12R
FRANKFORT      PTCLDY    81  72  74 CALM      30.10R
LOUISVILLE     MOCLDY    88  65  46 CALM      30.07R HX  90
LEBANON*         N/A     82  70  65 E3        30.10R
GLASGOW*       CLOUDY    79  73  82 CALM      30.09R
BOWLING GREEN  CLOUDY    83  74  74 NE3       30.07R
$$

KYZ091>093-OHZ055-061-077-WVZ005-015-034-035-042-270200
...SOUTHERN OHIO/WEST VIRGINIA...

CITY           SKY/WX    TMP DP  RH WIND       PRES   REMARKS
COVINGTON      CLOUDY    81  67  62 SE16      30.13R THUNDER
COLUMBUS       PTCLDY    80  68  66 NE3       30.11R
DAYTON         CLOUDY    80  72  76 N6        30.16R THUNDER
WILMINGTON     CLEAR     76  74  93 CALM      30.13R
HUNTINGTON     CLEAR     82  75  79 CALM      30.11R
CHARLESTON     PTCLDY    80  74  81 CALM      30.12R
PINEVILLE*     CLEAR     74  69  85 MISG      30.22R
BECKLEY        CLEAR     75  69  81 CALM      30.21R
BLUEFIELD      CLEAR     76  65  68 CALM      30.24R
LOGAN CO APT*    N/A     81  72  74 CALM      30.15R
$$

VAZ002-007-008-TNZ017-027-036-066-071-270200
...SOUTHWEST VIRGINIA/EAST TENNESSEE...

CITY           SKY/WX    TMP DP  RH WIND       PRES   REMARKS
WISE*          CLEAR     77  59  53 CALM      30.24R
JONESVILLE*      N/A     77  73  88 CALM      30.16R
ABINGDON*      CLEAR     80  68  67 CALM      30.18R
BRISTOL        PTCLDY    80  69  69 CALM      30.14R
MORRISTOWN*    CLEAR     84  68  58 CALM      30.11R
SEVIERVILLE*   CLEAR     82  68  61 CALM      30.09R
KNOXVILLE      CLOUDY    86  67  52 E3        30.08R
OAK RIDGE      CLEAR     84  73  69 CALM      30.10R HX  90
CROSSVILLE     CLOUDY    79  72  79 E3        30.15R
NASHVILLE      MOCLDY    87  74  64 E3        30.06R HX  95
$$

...KEY TO REMARKS...
VSB - VISIBILITY IN MILES
WCI - WIND CHILL INDEX
HX  - HEAT INDEX

$$



USA.gov is the U.S. government's official web portal to all federal, state and local government web resources and services.